TimeEST,TemperatureF,Dew PointF,Humidity,Sea Level PressureIn,VisibilityMPH,Wind Direction,Wind SpeedMPH,Gust SpeedMPH,PrecipitationIn,Events,Conditions,WindDirDegrees,DateUTC
12:15 AM,35.6,26.6,70,30.08,10.0,Calm,Calm,-,N/A,,Clear,0,2013-01-18 05:15:00
12:35 AM,35.6,26.6,70,30.09,10.0,NW,8.1,-,N/A,,Clear,310,2013-01-18 05:35:00
12:55 AM,35.6,26.6,70,30.12,10.0,WNW,5.8,-,N/A,,Clear,290,2013-01-18 05:55:00
1:15 AM,35.6,26.6,70,30.11,10.0,NNW,5.8,-,N/A,,Clear,330,2013-01-18 06:15:00
1:35 AM,35.6,24.8,65,30.13,10.0,NW,6.9,-,N/A,,Clear,310,2013-01-18 06:35:00
1:55 AM,35.6,24.8,65,30.14,10.0,NW,6.9,-,N/A,,Clear,310,2013-01-18 06:55:00
2:15 AM,35.6,24.8,65,30.15,10.0,NW,9.2,-,N/A,,Clear,310,2013-01-18 07:15:00
2:35 AM,33.8,24.8,70,30.15,10.0,NW,11.5,-,N/A,,Clear,320,2013-01-18 07:35:00
2:55 AM,33.8,24.8,70,30.16,10.0,NW,10.4,-,N/A,,Clear,320,2013-01-18 07:55:00
3:15 AM,35.6,23.0,60,30.16,10.0,NW,12.7,-,N/A,,Clear,320,2013-01-18 08:15:00
3:35 AM,33.8,23.0,65,30.17,10.0,NW,11.5,-,N/A,,Clear,310,2013-01-18 08:35:00
3:55 AM,33.8,21.2,60,30.17,10.0,WNW,8.1,-,N/A,,Clear,300,2013-01-18 08:55:00
4:15 AM,33.8,21.2,60,30.18,10.0,NW,8.1,-,N/A,,Scattered Clouds,310,2013-01-18 09:15:00
4:35 AM,35.6,21.2,56,30.19,10.0,NW,13.8,21.9,N/A,,Mostly Cloudy,320,2013-01-18 09:35:00
4:55 AM,35.6,21.2,56,30.20,10.0,NNW,16.1,23.0,N/A,,Mostly Cloudy,330,2013-01-18 09:55:00
5:15 AM,35.6,23.0,60,30.22,10.0,NNW,8.1,16.1,N/A,,Mostly Cloudy,340,2013-01-18 10:15:00
5:35 AM,33.8,21.2,60,30.23,10.0,NNW,9.2,-,N/A,,Mostly Cloudy,340,2013-01-18 10:35:00
5:55 AM,33.8,19.4,56,30.25,10.0,North,6.9,-,N/A,,Mostly Cloudy,350,2013-01-18 10:55:00
6:15 AM,33.8,21.2,60,30.26,10.0,North,9.2,-,N/A,,Mostly Cloudy,10,2013-01-18 11:15:00
6:35 AM,32.0,17.6,55,30.28,10.0,NNW,13.8,23.0,N/A,,Scattered Clouds,330,2013-01-18 11:35:00
6:55 AM,32.0,17.6,55,30.31,10.0,North,5.8,17.3,N/A,,Scattered Clouds,10,2013-01-18 11:55:00
7:15 AM,30.2,19.4,64,30.33,10.0,North,5.8,20.7,N/A,,Mostly Cloudy,360,2013-01-18 12:15:00
7:35 AM,30.2,17.6,60,30.35,10.0,NNW,9.2,19.6,N/A,,Overcast,340,2013-01-18 12:35:00
7:55 AM,30.2,15.8,55,30.37,10.0,North,10.4,18.4,N/A,,Scattered Clouds,350,2013-01-18 12:55:00
8:15 AM,30.2,15.8,55,30.39,10.0,NNW,13.8,18.4,N/A,,Scattered Clouds,330,2013-01-18 13:15:00
8:35 AM,30.2,15.8,55,30.41,10.0,NNW,8.1,-,N/A,,Mostly Cloudy,340,2013-01-18 13:35:00
8:55 AM,30.2,14.0,51,30.42,10.0,NNW,11.5,19.6,N/A,,Partly Cloudy,340,2013-01-18 13:55:00
9:15 AM,30.2,15.8,55,30.44,10.0,North,9.2,17.3,N/A,,Clear,350,2013-01-18 14:15:00
9:35 AM,30.2,12.2,47,30.46,10.0,NNW,13.8,23.0,N/A,,Clear,330,2013-01-18 14:35:00
9:55 AM,30.2,14.0,51,30.48,10.0,North,11.5,19.6,N/A,,Clear,350,2013-01-18 14:55:00
10:15 AM,30.2,14.0,51,30.48,10.0,North,8.1,-,N/A,,Clear,350,2013-01-18 15:15:00
11:15 AM,30.2,10.4,44,30.49,10.0,NNW,5.8,24.2,N/A,,Clear,340,2013-01-18 16:15:00
11:35 AM,30.2,10.4,44,30.49,10.0,NNW,10.4,16.1,N/A,,Clear,340,2013-01-18 16:35:00
11:55 AM,32.0,8.6,38,30.48,10.0,North,9.2,16.1,N/A,,Clear,360,2013-01-18 16:55:00
12:15 PM,30.2,8.6,40,30.48,10.0,North,6.9,16.1,N/A,,Clear,360,2013-01-18 17:15:00
12:35 PM,32.0,6.8,35,30.48,10.0,North,6.9,17.3,N/A,,Clear,350,2013-01-18 17:35:00
12:55 PM,32.0,8.6,38,30.47,10.0,North,9.2,-,N/A,,Clear,350,2013-01-18 17:55:00
1:15 PM,33.8,8.6,35,30.47,10.0,NW,15.0,21.9,N/A,,Clear,320,2013-01-18 18:15:00
1:35 PM,32.0,6.8,35,30.47,10.0,NNW,12.7,18.4,N/A,,Clear,330,2013-01-18 18:35:00
1:55 PM,33.8,10.4,38,30.48,10.0,NNW,5.8,16.1,N/A,,Clear,340,2013-01-18 18:55:00
2:15 PM,33.8,8.6,35,30.48,10.0,NNW,8.1,-,N/A,,Clear,330,2013-01-18 19:15:00
2:35 PM,33.8,10.4,38,30.48,10.0,North,5.8,-,N/A,,Clear,360,2013-01-18 19:35:00
2:55 PM,33.8,8.6,35,30.49,10.0,NW,10.4,-,N/A,,Clear,310,2013-01-18 19:55:00
3:15 PM,33.8,8.6,35,30.49,10.0,North,6.9,-,N/A,,Clear,350,2013-01-18 20:15:00
3:35 PM,33.8,8.6,35,30.48,10.0,NW,8.1,-,N/A,,Clear,310,2013-01-18 20:35:00
3:55 PM,33.8,8.6,35,30.49,10.0,WNW,4.6,-,N/A,,Clear,300,2013-01-18 20:55:00
4:15 PM,33.8,10.4,38,30.50,10.0,NW,5.8,-,N/A,,Clear,310,2013-01-18 21:15:00
4:35 PM,32.0,10.4,41,30.50,10.0,WNW,4.6,-,N/A,,Clear,290,2013-01-18 21:35:00
4:55 PM,32.0,8.6,38,30.49,10.0,WNW,3.5,-,N/A,,Clear,300,2013-01-18 21:55:00
5:15 PM,32.0,8.6,38,30.49,10.0,Calm,Calm,-,N/A,,Clear,0,2013-01-18 22:15:00
5:35 PM,30.2,10.4,44,30.49,10.0,Calm,Calm,-,N/A,,Clear,0,2013-01-18 22:35:00
5:55 PM,30.2,10.4,44,30.49,10.0,Calm,Calm,-,N/A,,Clear,0,2013-01-18 22:55:00
6:15 PM,30.2,10.4,44,30.49,10.0,Calm,Calm,-,N/A,,Clear,0,2013-01-18 23:15:00
6:35 PM,28.4,12.2,51,30.49,10.0,SSE,3.5,-,N/A,,Clear,160,2013-01-18 23:35:00
6:55 PM,28.4,12.2,51,30.49,10.0,SSE,4.6,-,N/A,,Clear,160,2013-01-18 23:55:00
7:15 PM,28.4,12.2,51,30.49,10.0,South,4.6,-,N/A,,Clear,170,2013-01-19 00:15:00
7:35 PM,28.4,12.2,51,30.49,10.0,South,5.8,-,N/A,,Clear,170,2013-01-19 00:35:00
7:55 PM,28.4,10.4,47,30.49,10.0,South,3.5,-,N/A,,Clear,180,2013-01-19 00:55:00
8:15 PM,28.4,10.4,47,30.49,10.0,South,3.5,-,N/A,,Clear,170,2013-01-19 01:15:00
8:35 PM,28.4,12.2,51,30.49,10.0,South,3.5,-,N/A,,Clear,170,2013-01-19 01:35:00
8:55 PM,28.4,12.2,51,30.49,10.0,South,4.6,-,N/A,,Clear,190,2013-01-19 01:55:00
9:35 PM,28.4,12.2,51,30.48,10.0,South,4.6,-,N/A,,Clear,190,2013-01-19 02:35:00
9:55 PM,30.2,12.2,47,30.48,10.0,South,4.6,-,N/A,,Clear,190,2013-01-19 02:55:00
10:35 PM,30.2,12.2,47,30.46,10.0,South,4.6,-,N/A,,Clear,190,2013-01-19 03:35:00
10:55 PM,30.2,12.2,47,30.45,10.0,South,6.9,-,N/A,,Clear,190,2013-01-19 03:55:00
11:15 PM,30.2,15.8,55,30.44,10.0,South,8.1,-,N/A,,Clear,190,2013-01-19 04:15:00
11:35 PM,30.2,15.8,55,30.43,10.0,South,5.8,-,N/A,,Clear,190,2013-01-19 04:35:00
11:55 PM,28.4,15.8,59,30.42,10.0,SSW,6.9,-,N/A,,Clear,200,2013-01-19 04:55:00